Miscellaneous Local Product
Issued by NWS North Platte, NE

Home | Current Version | Previous Version | Graphics & Text | Print | Product List | Glossary On
Versions: 1 2 3 4 5 6 7 8 9 10 11 12 13 14 15 16 17 18 19 20 21 22 23 24 25 26 27 28 29 30 31 32 33 34 35 36 37 38 39 40 41 42 43 44 45 46 47 48 49 50
341
AXUS43 KLBF 231610
MISLBF


WESTERN AND NORTH CENTRAL NEBRASKA HOURLY WEATHER ROUNDUP
NATIONAL WEATHER SERVICE NORTH PLATTE NE
1100 AM CDT WED AUG 23 2017

NOTE: "FAIR" INDICATES FEW OR NO CLOUDS BELOW 12,000 FEET WITH NO
SIGNIFICANT WEATHER AND/OR OBSTRUCTIONS TO VISIBILITY.

NOTE: STATIONS NOT REPORTING VARIABLES SUCH AS SKY/WEATHER OR
PRESSURE ARE PROVIDED BY RAWS AND APRS NETWORKS AND ARE NOT UNDER
NATIONAL WEATHER SERVICE QUALITY CONTROL.

...OBSERVATIONS IN AND NEAR THE EASTERN PANHANDLE OF NEBRASKA...

CITY           SKY/WX    TMP DP  RH WIND       PRES   REMARKS
PINE RIDGE     SUNNY     75  57  53 S10       30.07F
GORDON         FAIR      74  54  50 SW12      30.09F
CHADRON        SUNNY     76  56  49 SW8       30.07F
ALLIANCE       SUNNY     70  56  61 S9        30.12F
SIDNEY         SUNNY     73  57  57 S13       30.16S
$$

...OBSERVATIONS IN NORTHERN NEBRASKA AND FAR SOUTHERN SOUTH DAKOTA...

CITY           SKY/WX    TMP DP  RH WIND       PRES   REMARKS
WINNER         FAIR      75  56  51 SW17G23   30.06F
VALENTINE      SUNNY     79  52  38 SW22G29   30.07F
THEDFORD       SUNNY     75  52  43 S22G29    30.14S
AINSWORTH      SUNNY     74  53  48 SW16G22   30.10F
O`NEILL        SUNNY     71  57  61 S13       30.13F
ORD            CLOUDY    70  55  59 S12       30.15S
BROKEN BOW     SUNNY     74  50  42 S14       30.16S
VALENTINE NWR    N/A     72  52  48 SW16G23     N/A
HALSEY           N/A     72  46  39 S12G22      N/A
BUTTE            N/A     69  58  68 S10G18      N/A
CHAMBERS         N/A     73  54  51 W10         N/A
EWING            N/A     71  59  66 S10         N/A
$$

...OBSERVATIONS IN SOUTHWEST NEBRASKA AND FAR NORTHEAST COLORADO...

CITY           SKY/WX    TMP DP  RH WIND       PRES   REMARKS
WRAY           CLOUDY    72  59  64 S18G25    30.17S
HOLYOKE        FAIR      73  61  64 S17G24    30.16S
IMPERIAL       SUNNY     73  52  47 S15G25    30.17S
OGALLALA       MOSUNNY   73  54  52 SW10G21   30.16S
NORTH PLATTE   SUNNY     72  51  47 S15       30.17S
MCCOOK         MOSUNNY   74  50  42 S15G21    30.18F
LEXINGTON      SUNNY     71  53  53 S14       30.18F
STAPLETON        N/A     71  51  49 SW3G16      N/A
GOTHENBURG       N/A     68  48  48 S9          N/A
CALLAWAY         N/A     68  53  59 S12         N/A
$$

...OBSERVATIONS IN CENTRAL LINCOLN COUNTY AREA...

CITY           SKY/WX    TMP DP  RH WIND       PRES   REMARKS
N.P. AIRPORT   SUNNY     72  51  47 S15       30.17S
N.P. DOWNTOWN    N/A     73  52  47 SW3G12      N/A
N.P. SOUTHEAST   N/A     72  50  45 SW9G16      N/A
N.P. HILLCREST   N/A     72  51  46 SW12        N/A
$$

...SOME OBSERVATIONS FROM AROUND THE REGION...

CITY           SKY/WX    TMP DP  RH WIND       PRES   REMARKS
DENVER         MOSUNNY   76  52  43 NW8       30.20S
LIMON          SUNNY     69  58  67 S15       30.24F
ASPEN          SUNNY     67  41  38 CALM      30.40F
LARAMIE        CLOUDY    71  37  28 NE7       30.33S
CASPER         SUNNY     78  40  25 SW17      30.18F
CHEYENNE       SUNNY     79  38  22 N8        30.23F
SCOTTSBLUFF    SUNNY     71  57  61 E5        30.12F
GRAND ISLAND   SUNNY     72  54  53 S15       30.18S
OMAHA          SUNNY     73  56  54 S3        30.17S
SIOUX FALLS    MOSUNNY   74  56  53 S7        30.14S
PIERRE         MOSUNNY   73  55  53 S12       30.01F
RAPID CITY     SUNNY     74  51  44 N7        30.06S
BISMARCK       SUNNY     72  53  51 CALM      30.05F
KANSAS CITY    SUNNY     73  56  54 CALM      30.17S
HILL CITY      SUNNY     75  51  43 S10       30.19F
WICHITA        SUNNY     75  53  46 E10       30.16S
DODGE CITY       N/A     73  50  44 MISG      30.20F
OKLAHOMA CITY  PTSUNNY   76  67  73 NE8       30.10F
DALLAS         CLOUDY    83  70  64 VRB3      30.03R
AMARILLO       CLOUDY    69  65  86 SE8       30.23S
$$




USA.gov is the U.S. government's official web portal to all federal, state and local government web resources and services.